{"data":{"norad_id":65701,"epoch":"2026-05-24T23:38:20.952672Z","epoch_age_seconds":83107,"freshness":"FRESH","line1":"1 65701U 25212AB  26144.98496473 -.00008694  00000+0 -28187-3 0  9995","line2":"2 65701  53.1591 351.3592 0001076  80.4765 279.6358 15.30187226 38924","mean_motion":15.30187226,"eccentricity":0.0001076,"inclination_deg":53.1591,"raan_deg":351.3592,"arg_perigee_deg":80.4765,"mean_anomaly_deg":279.6358,"bstar":-0.00028187,"rev_number":3892,"period_min":94.106131297687,"perigee_km":474.51578575947,"apogee_km":475.99063533278,"semimajor_km":6853.3902105461,"source":"CELESTRAK","updated_at":"2026-05-25T13:38:20.899114Z"}}